Location: Bh?mavarapp?du
(16.7041°N, 80.6518°E)
Time: 02:15:19
(UTC+00:00)

Cosmos 1758 Rocket - Pass Details

Date: 21 April 2021
Orbit: 603 x 635 km, 82.5° (Epoch: 08 May)

Event Time Altitude Azimuth Distance (km) Brightness Sun altitude
Rises 13:52:28 0° 352° (N) 2,918 7.4 -14.3°
Reaches altitude 10° 13:54:43 10° 350° (N) 2,012 6.5 -14.8°
Maximum altitude 13:59:09 72° 266° (W) 667 3.8 -15.8°
Drops below altitude 10° 14:03:36 10° 182° (S) 2,011 6.0 -16.8°
Sets 14:05:50 0° 180° (S) 2,916 6.8 -17.3°
